Surface/Precipitation History
01/30/2015 03:03  to  1/31/2015 03:03
Change End Date:
Date/Time
(MST)
Sf
Temp Chem Water Layer Surface Precipitation
Sf Sub Frz Factor Pct Depth IcePct Cond Salin Type Intens Accum Rate
01/31/2015 02:55 Frost 4.6F 29F - - - - - 170 mhos 15000 None None - -
01/31/2015 02:50 Frost 5.0F 29F - - - - - 170 mhos 15000 None None - -
01/31/2015 02:40 Frost 5.0F 29F - - - - - 170 mhos 15000 None None - -
01/31/2015 02:30 Frost 5.4F 29F - - - - - 170 mhos 15000 None None - -
01/31/2015 02:26 Frost 5.2F 29F - - - - - 170 mhos 15000 None None - -
01/31/2015 02:20 Frost 5.2F 29F - - - - - 165 mhos 15000 None None - -
01/31/2015 02:10 Frost 5.4F 29F - - - - - 165 mhos 15000 None None - -
01/31/2015 02:00 Frost 5.5F 29F - - - - - 165 mhos 15000 None None - -
01/31/2015 01:56 Frost 5.7F 29F - - - - - 165 mhos 15000 None None - -
01/31/2015 01:50 Frost 5.9F 29F - - - - - 165 mhos 15000 None None - -
01/31/2015 01:39 Frost 6.3F 29F - - - - - 160 mhos 15000 None None - -
01/31/2015 01:29 Frost 6.3F 29F - - - - - 156 mhos 15000 None None - -
01/31/2015 01:26 Frost 6.3F 29F - - - - - 152 mhos 15000 None None - -
01/31/2015 01:19 Frost 6.4F 29F - - - - - 148 mhos 15000 None None - -
01/31/2015 01:09 Ice Watch 6.4F 29F - 25 - - - 141 mhos 15000 None None - -
Date/Time
(MST)
Sf
Temp Chem Water Layer Surface Precipitation
Sf Sub Frz Factor Pct Depth IcePct Cond Salin Type Intens Accum Rate
01/31/2015 00:59 Frost 6.6F 29F - - - - - 138 mhos 15000 None None - -
01/31/2015 00:55 Frost 6.6F 29F - - - - - 135 mhos 15000 None None - -
01/31/2015 00:49 Frost 6.8F 29F - - - - - 135 mhos 15000 None None - -
01/31/2015 00:39 Frost 7.0F 29F - - - - - 129 mhos 15000 None None - -
01/31/2015 00:29 Ice Watch 7.3F 29F - 25 - - - 126 mhos 15000 None None - -
01/31/2015 00:25 Ice Watch 7.3F 29F - 25 - - - 123 mhos 15000 None None - -
01/31/2015 00:19 Ice Watch 7.5F 29F - 25 - - - 121 mhos 15000 None None - -
01/31/2015 00:10 Frost 7.7F 29F - - - - - 114 mhos 15000 None None - -
01/31/2015 00:09 Frost 7.5F 29F - - - - - 114 mhos 15000 None None - -
01/30/2015 23:59 Frost 8.1F 29F - - - - - 108 mhos 15000 None None - -
01/30/2015 23:57 Frost 7.9F 29F - - - - - 106 mhos 15000 None None - -
01/30/2015 23:49 Frost 8.2F 29F - - - - - 100 mhos 15000 None None - -
01/30/2015 23:39 Ice Watch 8.2F 29F - 25 - - - 90 mhos 15000 None None - -
01/30/2015 23:29 Ice Watch 8.4F 29F - 20 - - - 81 mhos 15000 None None - -
01/30/2015 23:26 Frost 8.4F 29F - - - - - 79 mhos 15000 None None - -
Date/Time
(MST)
Sf
Temp Chem Water Layer Surface Precipitation
Sf Sub Frz Factor Pct Depth IcePct Cond Salin Type Intens Accum Rate
01/30/2015 23:19 Ice Watch 8.6F 29F - 20 - - - 74 mhos 15000 None None - -
01/30/2015 23:09 Ice Watch 9.0F 29F - 20 - - - 67 mhos 15000 None None - -
01/30/2015 22:59 Ice Watch 9.3F 29F - 20 - - - 62 mhos 15000 None None - -
01/30/2015 22:56 Ice Watch 9.5F 29F - 20 - - - 60 mhos 15000 None None - -
01/30/2015 22:49 Ice Watch 9.5F 29F - 20 - - - 56 mhos 15000 None None - -
01/30/2015 22:39 Ice Watch 10.2F 29F - 20 - - - 51 mhos 12663 None None - -
01/30/2015 22:29 Frost 10.2F 29F - - - - - 45 mhos 11909 None None - -
01/30/2015 22:26 Frost 10.6F 29F - - - - - 43 mhos 11583 None None - -
01/30/2015 22:19 Frost 10.6F 29F - - - - - 37 mhos 10836 None None - -
01/30/2015 22:08 Ice Watch 10.9F 29F - 20 - - - 29 mhos 9527 None None - -
01/30/2015 21:58 Ice Watch 11.3F 29F - 20 - - - 23 mhos 8279 None None - -
01/30/2015 21:56 Ice Watch 11.3F 29F - 20 - - - 22 mhos 8066 None None - -
01/30/2015 21:48 Ice Watch 11.5F 29F - 15 - - - 20 mhos 7472 None None - -
01/30/2015 21:38 Ice Watch 11.8F 29F - 15 - - - 17 mhos 6725 None None - -
01/30/2015 21:28 Ice Watch 12.0F 29F - 15 - - - 15 mhos 5914 None None - -
Date/Time
(MST)
Sf
Temp Chem Water Layer Surface Precipitation
Sf Sub Frz Factor Pct Depth IcePct Cond Salin Type Intens Accum Rate
01/30/2015 21:25 Ice Watch 12.2F 29F - 15 - - - 14 mhos 5622 None None - -
01/30/2015 21:18 Ice Watch 12.2F 29F - 10 - - - 12 mhos 5141 None None - -
01/30/2015 21:08 Ice Watch 12.6F 29F - 10 - - - 11 mhos 4485 None None - -
01/30/2015 20:58 Ice Watch 12.7F 29F - 10 - - - 9 mhos 3963 None None - -
01/30/2015 20:56 Ice Watch 12.6F 29F - 5 - - - 9 mhos 3847 None None - -
01/30/2015 20:48 Ice Watch 12.6F 29F - 5 - - - 8 mhos 3470 None None - -
01/30/2015 20:38 Ice Watch 13.1F 29F - 5 - - - 7 mhos 3089 None None - -
01/30/2015 20:28 Ice Watch 13.3F 29F - 5 - - - 7 mhos 2846 None None - -
01/30/2015 20:26 Ice Watch 13.5F 29F - 5 - - - 6 mhos 2771 None None - -
01/30/2015 20:18 Ice Watch 13.6F 29F - 5 - - - 6 mhos 2702 None None - -
01/30/2015 20:08 Ice Watch 14.0F 29F - 5 - - - 6 mhos 2599 None None - -
01/30/2015 19:58 Ice Watch 14.4F 29F - 5 - - - 6 mhos 2458 None None - -
01/30/2015 19:56 Ice Watch 14.5F 29F - 5 - - - 6 mhos 2444 None None - -
01/30/2015 19:48 Ice Watch 14.4F 29F - 5 - - - 6 mhos 2338 None None - -
01/30/2015 19:38 Ice Watch 14.7F 29F - 5 - - - 5 mhos 2162 None None - -
Date/Time
(MST)
Sf
Temp Chem Water Layer Surface Precipitation
Sf Sub Frz Factor Pct Depth IcePct Cond Salin Type Intens Accum Rate
01/30/2015 19:28 Ice Watch 15.1F 29F - 5 - - - 5 mhos 2067 None None - -
01/30/2015 19:26 Ice Watch 15.3F 29F - 5 - - - 5 mhos 2039 None None - -
01/30/2015 19:18 Ice Watch 15.8F 29F - 5 - - - 5 mhos 1986 None None - -
01/30/2015 19:08 Ice Watch 16.2F 29F - 5 - - - 5 mhos 1810 None None - -
01/30/2015 18:58 Ice Watch 16.3F 29F - 5 - - - 5 mhos 1655 None None - -
01/30/2015 18:55 Ice Watch 16.5F 29F - 5 - - - 5 mhos 1610 None None - -
01/30/2015 18:48 Ice Watch 16.7F 29F - 5 - - - 5 mhos 1569 None None - -
01/30/2015 18:38 Ice Watch 16.9F 29F - 5 - - - 4 mhos 1363 None None - -
01/30/2015 18:27 Ice Watch 17.1F 29F - 5 - - - 3 mhos 1166 None None - -
01/30/2015 18:25 Ice Watch 17.2F 29F - 5 - - - 3 mhos 1124 None None - -
01/30/2015 18:17 Ice Watch 17.6F 29F - 5 - - - 3 mhos 1081 None None - -
01/30/2015 18:10 Ice Watch 18.1F 29F - 5 - - - 3 mhos 1005 None None - -
01/30/2015 18:07 Ice Watch 18.0F 29F - 5 - - - 3 mhos 1006 None None - -
01/30/2015 17:57 Ice Watch 18.7F 29F - 5 - - - 3 mhos 933 None None - -
01/30/2015 17:55 Ice Watch 18.7F 29F - 5 - - - 3 mhos 924 None None - -
Date/Time
(MST)
Sf
Temp Chem Water Layer Surface Precipitation
Sf Sub Frz Factor Pct Depth IcePct Cond Salin Type Intens Accum Rate
01/30/2015 17:47 Ice Watch 19.2F 29F - 5 - - - 3 mhos 878 None None - -
01/30/2015 17:40 Ice Watch 19.8F 29F - 5 - - - 3 mhos 823 None None - -
01/30/2015 17:37 Ice Watch 19.8F 29F - 5 - - - 3 mhos 818 None None - -
01/30/2015 17:27 Ice Watch 20.8F 29F - 5 - - - 3 mhos 747 None None - -
01/30/2015 17:25 Ice Watch 21.2F 29F - 5 - - - 3 mhos 727 None None - -
01/30/2015 17:17 Ice Watch 21.7F 29F - 5 - - - 3 mhos 684 None None - -
01/30/2015 17:10 Ice Watch 22.3F 29F - 5 - - - 3 mhos 658 None None - -
01/30/2015 17:07 Ice Watch 22.5F 29F - 5 - - - 3 mhos 642 None None - -
01/30/2015 16:57 Ice Watch 23.4F 29F - 5 - - - 3 mhos 597 None None - -
01/30/2015 16:55 Ice Watch 23.5F 29F - 5 - - - 3 mhos 590 None None - -
01/30/2015 16:47 Ice Watch 24.3F 30F - 5 - - - 3 mhos 559 None None - -
01/30/2015 16:40 Ice Watch 24.8F 29F - 5 - - - 3 mhos 539 None None - -
01/30/2015 16:37 Ice Watch 25.2F 29F - 5 - - - 3 mhos 526 None None - -
01/30/2015 16:27 Ice Watch 25.9F 29F - 5 - - - 3 mhos 499 None None - -
01/30/2015 16:26 Ice Watch 26.1F 29F - 5 - - - 3 mhos 489 None None - -
Date/Time
(MST)
Sf
Temp Chem Water Layer Surface Precipitation
Sf Sub Frz Factor Pct Depth IcePct Cond Salin Type Intens Accum Rate
01/30/2015 16:17 Ice Watch 26.6F 29F - 5 - - - 3 mhos 481 None None - -
01/30/2015 16:07 Dry 27.0F 29F - - - - - 3 mhos 464 None None - -
01/30/2015 15:57 Dry 27.7F 29F - - - - - 3 mhos 444 None None - -
01/30/2015 15:55 Dry 27.9F 30F - - - - - 3 mhos 430 None None - -
01/30/2015 15:47 Dry 28.2F 30F - - - - - 3 mhos 416 None None - -
01/30/2015 15:40 Dry 28.6F 29F - - - - - 3 mhos 402 None None - -
01/30/2015 15:37 Dry 28.8F 29F - - - - - 3 mhos 401 None None - -
01/30/2015 15:27 Dry 28.9F 30F - - - - - 3 mhos 396 None None - -
01/30/2015 15:25 Dry 28.9F 30F - - - - - 3 mhos 402 None None - -
01/30/2015 15:17 Dry 29.1F 30F - - - - - 3 mhos 418 None None - -
01/30/2015 15:10 Dry 29.5F 30F - - - - - 3 mhos 409 None None - -
01/30/2015 15:07 Dry 30.0F 29F - - - - - 3 mhos 399 None None - -
01/30/2015 14:57 Dry 31.3F 30F - - - - - 3 mhos 355 None None - -
01/30/2015 14:55 Dry 31.3F 30F - - - - - 3 mhos 353 None None - -
01/30/2015 14:46 Dry 32.4F 30F - - - - - 3 mhos 334 None None - -
Date/Time
(MST)
Sf
Temp Chem Water Layer Surface Precipitation
Sf Sub Frz Factor Pct Depth IcePct Cond Salin Type Intens Accum Rate
01/30/2015 14:40 Dry 33.1F 30F - - - - - 3 mhos 320 None None - -
01/30/2015 14:36 Dry 33.3F 30F - - - - - 3 mhos 317 None None - -
01/30/2015 14:26 Dry 33.8F 30F - - - - - 3 mhos 314 None None - -
01/30/2015 14:25 Dry 34.0F 30F - - - - - 3 mhos 315 None None - -
01/30/2015 14:16 Dry 34.9F 30F - - - - - 3 mhos 312 None None - -
01/30/2015 14:10 Dry 35.8F 30F - - - - - 3 mhos 311 None None - -
01/30/2015 14:06 Dry 36.3F 30F - - - - - 3 mhos 314 None None - -
01/30/2015 13:56 Dry 36.9F 30F - - - - - 3 mhos 308 None None - -
01/30/2015 13:55 Dry 37.0F 30F - - - - - 3 mhos 309 None None - -
01/30/2015 13:46 Dry 37.6F 30F - - - - - 3 mhos 303 None None - -
01/30/2015 13:40 Dry 38.5F 30F - - - - - 1 mhos 64 None None - -
01/30/2015 13:36 Dry 38.1F 30F - - - - - 3 mhos 277 None None - -
01/30/2015 13:26 Dry 36.7F 30F - - - - - 3 mhos 278 None None - -
01/30/2015 13:25 Dry 36.7F 30F - - - - - 3 mhos 277 None None - -
01/30/2015 13:16 Dry 36.1F 30F - - - - - 3 mhos 282 None None - -
Date/Time
(MST)
Sf
Temp Chem Water Layer Surface Precipitation
Sf Sub Frz Factor Pct Depth IcePct Cond Salin Type Intens Accum Rate
01/30/2015 13:10 Dry 36.3F 30F - - - - - 3 mhos 265 None None - -
01/30/2015 13:06 Dry 35.4F 30F - - - - - 3 mhos 286 None None - -
01/30/2015 12:56 Dry 34.0F 30F - - - - - 4 mhos 353 None None - -
01/30/2015 12:55 Dry 34.0F 30F - - - - - 4 mhos 357 None None - -
01/30/2015 12:46 Ice Watch 31.6F 30F - 5 - - - 5 mhos 535 None None - -
01/30/2015 12:40 Chemically Wet 28.8F 30F 31F 5 4% - 80% 10 mhos 1279 None None - -
01/30/2015 12:36 Chemically Wet 27.1F 30F 30F 5 7% - 75% 16 mhos 2202 None None - -
01/30/2015 12:26 Chemically Wet 24.4F 30F 26F 5 17% - 60% 32 mhos 4951 None None - -
01/30/2015 12:25 Chemically Wet 24.3F 30F 26F 5 18% - 57% 36 mhos 5393 None None - -
01/30/2015 12:16 Chemically Wet 21.4F 30F 20F 5 28% 0.70 in 0% 52 mhos 8401 None None - -
01/30/2015 12:10 Chemically Wet 20.8F 30F 6F 5 47% 0.70 in 0% 63 mhos 14024 None None - -
01/30/2015 12:06 Chemically Wet 20.5F 30F 3F 5 50% 0.70 in 0% 72 mhos 15000 None None - -
01/30/2015 11:56 Chemically Wet 19.6F 30F 3F 5 50% 0.70 in 0% 90 mhos 15000 None None - -
01/30/2015 11:55 Chemically Wet 19.4F 30F 3F 5 50% 0.70 in 0% 92 mhos 15000 None None - -
01/30/2015 11:46 Chemically Wet 18.5F 30F 3F 5 50% 0.70 in 0% 107 mhos 15000 None None - -
Date/Time
(MST)
Sf
Temp Chem Water Layer Surface Precipitation
Sf Sub Frz Factor Pct Depth IcePct Cond Salin Type Intens Accum Rate
01/30/2015 11:40 Chemically Wet 18.7F 30F 3F 5 50% 0.70 in 0% 124 mhos 15000 None None - -
01/30/2015 11:36 Chemically Wet 18.5F 30F 3F 5 50% 0.70 in 0% 132 mhos 15000 None None - -
01/30/2015 11:25 Chemically Wet 18.5F 30F 3F 5 50% 0.70 in 0% 163 mhos 15000 None None - -
01/30/2015 11:25 Chemically Wet 18.3F 30F 3F 5 50% 0.70 in 0% 167 mhos 15000 None None - -
01/30/2015 11:15 Chemically Wet 18.0F 30F 3F 5 50% 0.70 in 0% 196 mhos 15000 None None - -
01/30/2015 11:10 Chemically Wet 17.6F 30F 3F 5 50% 0.70 in 0% 219 mhos 15000 None None - -
01/30/2015 11:05 Chemically Wet 18.1F 30F 3F 5 50% 0.70 in 0% 228 mhos 15000 None None - -
01/30/2015 10:55 Chemically Wet 18.1F 30F 3F 5 50% 0.70 in 0% 259 mhos 15000 None None - -
01/30/2015 10:55 Chemically Wet 18.1F 30F 3F 5 50% 0.70 in 0% 259 mhos 15000 None None - -
01/30/2015 10:45 Chemically Wet 18.1F 30F 3F 15 50% 0.00 in 0% 298 mhos 15000 None None - -
01/30/2015 10:40 Chemically Wet 17.6F 30F 3F 20 50% 0.00 in 0% 298 mhos 15000 None None - -
01/30/2015 10:35 Chemically Wet 17.1F 30F 3F 30 50% 0.00 in 0% 298 mhos 15000 None None - -
01/30/2015 10:25 Chemically Wet 17.1F 30F 3F 55 50% 0.00 in 0% 297 mhos 15000 None None - -
01/30/2015 10:25 Chemically Wet 17.1F 30F 3F 55 50% 0.00 in 0% 297 mhos 15000 None None - -
01/30/2015 10:15 Chemically Wet 16.2F 30F 3F 75 50% 0.00 in 0% 297 mhos 15000 None None - -
Date/Time
(MST)
Sf
Temp Chem Water Layer Surface Precipitation
Sf Sub Frz Factor Pct Depth IcePct Cond Salin Type Intens Accum Rate
01/30/2015 10:10 Chemically Wet 15.4F 30F 3F 75 50% 0.00 in 0% 297 mhos 15000 None None - -
01/30/2015 10:05 Chemically Wet 14.2F 30F 3F 75 50% 0.00 in 0% 297 mhos 15000 None None - -
01/30/2015 09:55 Chemically Wet 11.8F 30F 3F 65 50% 0.00 in 0% 270 mhos 15000 None None - -
01/30/2015 09:55 Chemically Wet 11.8F 30F 3F 65 50% 0.00 in 0% 270 mhos 15000 None None - -
01/30/2015 09:45 Chemically Wet 10.0F 30F 3F 60 50% 0.00 in 0% 258 mhos 15000 None None - -
01/30/2015 09:40 Chemically Wet 9.5F 30F 3F 55 50% 0.00 in 0% 258 mhos 15000 None None - -
01/30/2015 09:35 Chemically Wet 9.0F 30F 3F 55 50% 0.00 in 0% 258 mhos 15000 None None - -
01/30/2015 09:25 Chemically Wet 8.2F 30F 3F 50 50% 0.00 in 0% 248 mhos 15000 None None - -
01/30/2015 09:25 Chemically Wet 8.2F 30F 3F 50 50% 0.00 in 0% 248 mhos 15000 None None - -
01/30/2015 09:15 Chemically Wet 7.2F 30F 3F 45 50% 0.00 in 0% 248 mhos 15000 None None - -
01/30/2015 09:10 Chemically Wet 7.0F 30F 3F 45 50% 0.00 in 0% 238 mhos 15000 None None - -
01/30/2015 09:05 Chemically Wet 6.8F 30F 3F 45 50% 0.00 in 0% 248 mhos 15000 None None - -
01/30/2015 08:55 Chemically Wet 6.6F 30F 3F 45 50% 0.00 in 0% 238 mhos 15000 None None - -
01/30/2015 08:55 Chemically Wet 6.6F 30F 3F 45 50% 0.00 in 0% 238 mhos 15000 None None - -
01/30/2015 08:45 Chemically Wet 6.3F 30F 3F 40 50% 0.00 in 0% 238 mhos 15000 None None - -
Date/Time
(MST)
Sf
Temp Chem Water Layer Surface Precipitation
Sf Sub Frz Factor Pct Depth IcePct Cond Salin Type Intens Accum Rate
01/30/2015 08:40 Chemically Wet 6.1F 30F 3F 45 50% 0.00 in 0% 238 mhos 15000 None None - -
01/30/2015 08:35 Chemically Wet 5.9F 30F 3F 40 50% 0.00 in 0% 238 mhos 15000 None None - -
01/30/2015 08:25 Chemically Wet 6.3F 30F 3F 40 50% 0.00 in 0% 238 mhos 15000 None None - -
01/30/2015 08:25 Chemically Wet 6.3F 30F 3F 40 50% 0.00 in 0% 238 mhos 15000 None None - -
01/30/2015 08:15 Chemically Wet 6.3F 30F 3F 40 50% 0.00 in 0% 238 mhos 15000 None None - -
01/30/2015 08:10 Chemically Wet 5.9F 30F 3F 40 50% 0.00 in 0% 238 mhos 15000 None None - -
01/30/2015 08:04 Chemically Wet 5.9F 30F 3F 40 50% 0.00 in 0% 238 mhos 15000 None None - -
01/30/2015 07:55 Chemically Wet 6.1F 30F 3F 40 50% 0.00 in 0% 238 mhos 15000 None None - -
01/30/2015 07:54 Chemically Wet 6.1F 30F 3F 40 50% 0.00 in 0% 238 mhos 15000 None None - -
01/30/2015 07:44 Chemically Wet 6.6F 30F 3F 40 50% 0.00 in 0% 238 mhos 15000 None None - -
01/30/2015 07:40 Chemically Wet 6.4F 30F 3F 40 50% 0.00 in 0% 238 mhos 15000 None None - -
01/30/2015 07:34 Chemically Wet 6.4F 30F 3F 40 50% 0.00 in 0% 238 mhos 15000 None None - -
01/30/2015 07:25 Chemically Wet 6.8F 30F 3F 40 50% 0.00 in 0% 238 mhos 15000 None None - -
01/30/2015 07:24 Chemically Wet 6.8F 30F 3F 45 50% 0.00 in 0% 238 mhos 15000 None None - -
01/30/2015 07:14 Chemically Wet 6.8F 30F 3F 40 50% 0.00 in 0% 238 mhos 15000 None None - -
Date/Time
(MST)
Sf
Temp Chem Water Layer Surface Precipitation
Sf Sub Frz Factor Pct Depth IcePct Cond Salin Type Intens Accum Rate
01/30/2015 07:04 Chemically Wet 6.6F 30F 3F 45 50% 0.00 in 0% 238 mhos 15000 None None - -
01/30/2015 06:55 Chemically Wet 6.8F 30F 3F 40 50% 0.00 in 0% 238 mhos 15000 None None - -
01/30/2015 06:54 Chemically Wet 6.6F 30F 3F 40 50% 0.00 in 0% 238 mhos 15000 None None - -
01/30/2015 06:44 Chemically Wet 6.8F 30F 3F 40 50% 0.00 in 0% 238 mhos 15000 None None - -
01/30/2015 06:40 Chemically Wet 7.0F 30F 3F 40 50% 0.00 in 0% 238 mhos 15000 None None - -
01/30/2015 06:34 Chemically Wet 7.2F 30F 3F 45 50% 0.00 in 0% 248 mhos 15000 None None - -
01/30/2015 06:25 Chemically Wet 7.3F 30F 3F 45 50% 0.00 in 0% 238 mhos 15000 None None - -
01/30/2015 06:24 Chemically Wet 7.3F 30F 3F 45 50% 0.00 in 0% 248 mhos 15000 None None - -
01/30/2015 06:14 Chemically Wet 7.3F 30F 3F 45 50% 0.00 in 0% 248 mhos 15000 None None - -
01/30/2015 06:10 Chemically Wet 7.3F 30F 3F 45 50% 0.00 in 0% 248 mhos 15000 None None - -
01/30/2015 06:04 Chemically Wet 7.5F 30F 3F 45 50% 0.00 in 0% 248 mhos 15000 None None - -
01/30/2015 05:55 Chemically Wet 7.5F 30F 3F 45 50% 0.00 in 0% 248 mhos 15000 None None - -
01/30/2015 05:54 Chemically Wet 7.5F 30F 3F 45 50% 0.00 in 0% 248 mhos 15000 None None - -
01/30/2015 05:44 Chemically Wet 7.9F 30F 3F 45 50% 0.00 in 0% 248 mhos 15000 None None - -
01/30/2015 05:40 Chemically Wet 7.9F 30F 3F 45 50% 0.00 in 0% 248 mhos 15000 None None - -
Date/Time
(MST)
Sf
Temp Chem Water Layer Surface Precipitation
Sf Sub Frz Factor Pct Depth IcePct Cond Salin Type Intens Accum Rate
01/30/2015 05:34 Chemically Wet 7.9F 30F 3F 45 50% 0.00 in 0% 248 mhos 15000 None None - -
01/30/2015 05:25 Chemically Wet 7.9F 30F 3F 45 50% 0.00 in 0% 248 mhos 15000 None None - -
01/30/2015 05:24 Chemically Wet 7.9F 30F 3F 45 50% 0.00 in 0% 248 mhos 15000 None None - -
01/30/2015 05:13 Chemically Wet 7.7F 30F 3F 45 50% 0.00 in 0% 248 mhos 15000 None None - -
01/30/2015 05:10 Chemically Wet 8.1F 30F 3F 45 50% 0.00 in 0% 248 mhos 15000 None None - -
01/30/2015 05:03 Chemically Wet 7.7F 30F 3F 45 50% 0.00 in 0% 238 mhos 15000 None None - -
01/30/2015 04:55 Chemically Wet 7.7F 30F 3F 45 50% 0.00 in 0% 238 mhos 15000 None None - -
01/30/2015 04:53 Chemically Wet 7.7F 30F 3F 45 50% 0.00 in 0% 238 mhos 15000 None None - -
01/30/2015 04:43 Chemically Wet 7.3F 30F 3F 45 50% 0.00 in 0% 238 mhos 15000 None None - -
01/30/2015 04:40 Chemically Wet 7.5F 30F 3F 45 50% 0.00 in 0% 238 mhos 15000 None None - -
01/30/2015 04:33 Chemically Wet 7.2F 30F 3F 45 50% 0.00 in 0% 238 mhos 15000 None None - -
01/30/2015 04:26 Chemically Wet 7.0F 30F 3F 45 50% 0.00 in 0% 238 mhos 15000 None None - -
01/30/2015 04:23 Chemically Wet 7.0F 30F 3F 45 50% 0.00 in 0% 238 mhos 15000 None None - -
01/30/2015 04:13 Chemically Wet 6.8F 30F 3F 45 50% 0.00 in 0% 228 mhos 15000 None None - -
01/30/2015 04:03 Chemically Wet 6.6F 30F 3F 45 50% 0.00 in 0% 238 mhos 15000 None None - -
Date/Time
(MST)
Sf
Temp Chem Water Layer Surface Precipitation
Sf Sub Frz Factor Pct Depth IcePct Cond Salin Type Intens Accum Rate
01/30/2015 03:55 Chemically Wet 7.0F 30F 3F 45 50% 0.00 in 0% 238 mhos 15000 None None - -
01/30/2015 03:53 Chemically Wet 7.0F 30F 3F 45 50% 0.00 in 0% 238 mhos 15000 None None - -
01/30/2015 03:43 Chemically Wet 7.2F 30F 3F 45 50% 0.00 in 0% 238 mhos 15000 None None - -
01/30/2015 03:33 Chemically Wet 7.7F 30F 3F 45 50% 0.00 in 0% 238 mhos 15000 None None - -
01/30/2015 03:25 Chemically Wet 7.9F 30F 3F 45 50% 0.00 in 0% 238 mhos 15000 None None - -
01/30/2015 03:23 Chemically Wet 7.9F 30F 3F 45 50% 0.00 in 0% 228 mhos 15000 None None - -
01/30/2015 03:13 Chemically Wet 8.4F 30F 3F 50 50% 0.00 in 0% 228 mhos 15000 None None - -
01/30/2015 03:03 Chemically Wet 8.2F 30F 3F 50 50% 0.00 in 0% 228 mhos 15000 None None - -
Change End Date:
Copyright © 1998-2005 Surface Systems, Inc.
All Rights Reserved
Send comments about the data to:
SCAN Web ® is a registered trademark of Surface Systems, Inc.
SCAN Web Version 5.6